OKEAN-3

Last updated on Sun Apr 12 2026 00:02:17 GMT+0000 (Coordinated Universal Time)

1 21397U 91039A 26101.45913053 .00001851 00000+0 12829-3 0 9993 2 21397 82.5156 305.0866 0013565 214.6581 145.3763 15.05005924869964
UTC large
Height (km)
Speed (km/s)
/
Latitude / Longitude
Inclination (degrees)
Orbital Period (minutes)
Azimuth
Elevation
Range (km)
Doppler Factor

Next 0 passes for location: London (51.5072 / 0.1276)

Sorry there are no passes over London.
OKEAN-3